sat.trackr.live / text

‹ back to catalog

GONETS-M 6

NORAD 39250 · 2013-048B

PAYLOAD ACTIVE UNKNOWN

§ Identity

Operator
Country
CIS
Launch date
2013-09-11
Launch site
PLMSC
Launch vehicle
Mass (kg)
RCS (m²)
1.67

External: N2YO · Heavens-Above · Gunter

§ Orbital elements

Epoch: 2026-05-25T03:28:19.983072Z

Period
115.85 min
Inclination
82.4873°
Eccentricity
0.0018370
Mean motion
12.43029629 rev/d
Perigee alt
1,479.3 km
Apogee alt
1,508.2 km
Semi-major
7,871.9 km
B*
-7.3771e-4
RAAN
358.6451°
Arg perigee
298.5781°
Mean anomaly
61.3450°
Rev number
57,608

§ Raw data

GONETS-M 61 39250U 13048B   26145.14467573 -.00000093  00000+0 -73771-3 0  99912 39250  82.4873 358.6451 0018370 298.5781  61.3450 12.43029629576087

JSON: /api/v1/satellites/39250 · /tle

For live sub-satellite position, see the globe view (requires WebGL).

§ Visibility from observer

Set your observer location to see the next 7 days of passes ≥ 10°. The values pass through the URL so the page stays shareable.

No JS? Fill the form by hand. The geolocation button needs JavaScript.